Flag for Germany Weather past 2 weeks in Oberursel (Taunus), Hesse, Germany

Now
54 °F

Passing clouds.


Feels Like: 54 °F
Forecast: 50 / 68 °F
Wind: 3 mph from Northeast

Location: Frankfurt / M-Flughafen


UV Index: 3 (Moderate)

Visibility: 19 mi


Pressure: 29.90 "Hg

Humidity: 83%

Dew point: 49 °F

Location of Oberursel (Taunus)Location

Historic Weather in Oberursel (Taunus)

°F

Oberursel (Taunus) temperature yesterday

Maximum temperature yesterday: 75 °F (at 6:00 PM)
Minimum temperature yesterday: 52 °F (at 7:00 AM)
Average temperature yesterday: 64 °F

Past Weeks' High & Low Weather Summary

 TemperatureHumidityPressure
High75 °F (Apr 24, 6:00 PM)94% (Apr 23, 5:00 AM)30.44 "Hg (Apr 23, 5:00 AM)
Low33 °F (Apr 16, 6:00 AM)26% (Apr 17, 6:00 PM)29.59 "Hg (Apr 21, 4:00 PM)
Average55 °F61%30.02 "Hg
* Reported Apr 10 4:00 AM — Apr 25 4:00 AM, Oberursel (Taunus), Weather by CustomWeather, © 2014

Note: Actual official high and low records may vary slightly from our data, if they occured in-between our weather recording intervals... More about our weather records

Advertising

Historic Weather Conditions — Data for Previous 24 hours

 ConditionsComfort  
Time TempWeatherWind HumidityBarometerVisibility
4:00 AM
Apr 25
56 °FPassing clouds.2 mph78%29.91 "Hg19 mi
3:00 AM56 °FPassing clouds.2 mph76%29.92 "Hg19 mi
2:00 AM58 °FPassing clouds.3 mph73%29.93 "Hg19 mi
1:00 AM60 °FClear.2 mph67%29.94 "Hg19 mi
12:00 AM61 °FPassing clouds.3 mph67%29.95 "Hg25 mi
11:00 PM
Apr 24
64 °FPassing clouds.3 mph60%29.95 "Hg25 mi
10:00 PM66 °FPassing clouds.3 mph52%29.94 "Hg25 mi
9:00 PM68 °FPassing clouds.2 mph46%29.94 "Hg25 mi
8:00 PM71 °FScattered clouds.3 mph35%29.93 "Hg25 mi
7:00 PM75 °FScattered clouds.3 mph26%29.93 "Hg25 mi
6:00 PM75 °FPartly sunny.3 mph29%29.95 "Hg25 mi
5:00 PM73 °FPartly sunny.3 mph33%29.97 "Hg25 mi
4:00 PM75 °FPartly sunny.3 mph33%29.98 "Hg25 mi
3:00 PM74 °FPartly sunny.3 mph35%30.01 "Hg25 mi
2:00 PM74 °FPartly sunny.2 mph33%30.03 "Hg25 mi
1:00 PM72 °FPartly sunny.2 mph38%30.05 "Hg17 mi
12:00 PM69 °FScattered clouds.2 mph44%30.08 "Hg16 mi
10:00 AM63 °FPartly sunny.2 mph60%30.11 "Hg16 mi
9:00 AM59 °FPartly sunny.3 mph67%30.11 "Hg17 mi
8:00 AM54 °FScattered clouds.1 mph79%30.12 "Hg17 mi
7:00 AM52 °FScattered clouds.1 mph82%30.11 "Hg17 mi
6:00 AM53 °FOvercast.2 mph81%30.09 "Hg19 mi
Weather by CustomWeather, © 2014

See weather overview